Regional Weather Roundup
Issued by NWS

Home | Current Version | Previous Version | Graphics & Text | Print | Product List | Glossary On
Versions: 1 2 3 4 5 6 7 8 9 10 11 12 13 14 15 16 17 18 19 20 21 22 23 24 25 26 27 28 29 30 31 32 33 34 35 36 37 38 39 40 41 42 43 44 45 46 47 48 49 50
000
ASUS43 KBIS 270901
RWRND

NORTH DAKOTA REGIONAL WEATHER ROUNDUP
NATIONAL WEATHER SERVICE BISMARCK ND
400 AM CDT WED MAY 27 2015

NOTE: "FAIR" INDICATES FEW OR NO CLOUDS BELOW 12,000 FEET WITH NO
SIGNIFICANT WEATHER AND/OR OBSTRUCTIONS TO VISIBILITY.


NDZ001>003-009>011-017-271000-
NORTHWEST NORTH DAKOTA

CITY           SKY/WX    TMP DP  RH WIND       PRES   REMARKS
WILLISTON      PTCLDY    51  44  77 CALM      29.91R
MINOT          CLEAR     59  46  62 SW12      29.88R
MINOT AFB      CLEAR     54  53  97 W6        29.87R
$$

NDZ018>021-031>035-040>046-271000-
SOUTHWEST NORTH DAKOTA

CITY           SKY/WX    TMP DP  RH WIND       PRES   REMARKS
BISMARCK       CLEAR     51  48  89 CALM      29.93R
DICKINSON      CLEAR     50  43  77 SW7       29.94R
GARRISON         N/A     54  46  74 W3        29.90R
HETTINGER ARPT CLEAR     44  40  85 CALM      29.97S
$$

NDZ004>008-012>016-024-026-027-054-271000-
NORTHEAST NORTH DAKOTA

CITY           SKY/WX    TMP DP  RH WIND       PRES   REMARKS
GRAND FORKS    CLEAR     58  47  66 NW9       29.81R
GRND FRKS AFB  CLEAR     59  47  65 NW8       29.83R
DEVILS LAKE    CLEAR     55  46  71 W7        29.86S
$$

NDZ022-023-025-028>030-036>039-047>053-271000-
SOUTHEAST NORTH DAKOTA

CITY           SKY/WX    TMP DP  RH WIND       PRES   REMARKS
FARGO          CLEAR     56  49  77 W3        29.81R
JAMESTOWN      CLEAR     56  48  74 W9        29.87S
$$




USA.gov is the U.S. government's official web portal to all federal, state and local government web resources and services.